Location: Saleratus Ranch
(37.7914°N, 109.6108°W)
Time: 10:50:44
(UTC-07:00)

OTV 5 (USA 277) - Visible Passes

Search period start: 24 February 2018 00:00
Search period end: 06 March 2018 00:00
Orbit: 404 x 417 km, 43.0° (Epoch: 07 September)

Date Brightness Start Highest point End Pass type
(mag) Time Alt. Az. Time Alt. Az. Time Alt. Az.
24 Feb ? 04:47:30 24° ENE 04:47:30 24° ENE 04:48:58 10° ENE visible
24 Feb ? 06:20:15 10° WNW 06:23:13 33° N 06:26:15 10° ENE visible
25 Feb ? 05:31:35 36° NW 05:32:03 39° NNW 05:35:10 10° ENE visible
26 Feb ? 04:42:52 20° NE 04:42:52 20° NE 04:44:07 10° ENE visible
26 Feb ? 06:15:40 10° WNW 06:18:38 31° N 06:21:36 10° ENE visible
27 Feb ? 05:26:53 29° NNW 05:27:27 31° N 05:30:26 10° ENE visible
28 Feb ? 04:38:08 18° NE 04:38:08 18° NE 04:39:18 10° ENE visible
28 Feb ? 06:10:56 10° WNW 06:14:02 37° N 06:17:06 10° E visible
01 Mar ? 05:22:09 29° NNW 05:22:51 33° N 05:25:52 10° ENE visible
02 Mar ? 04:33:26 19° NE 04:33:26 19° NE 04:34:39 10° ENE visible
02 Mar ? 06:06:11 11° WNW 06:09:20 61° NNE 06:12:35 10° E visible
03 Mar ? 05:17:31 38° NNW 05:18:13 46° NNE 05:21:24 10° E visible
04 Mar ? 04:28:55 20° ENE 04:28:55 20° ENE 04:30:10 10° E visible
04 Mar ? 06:01:40 13° WNW 06:04:31 61° SSW 06:07:44 10° SE visible
05 Mar ? 05:13:09 71° WNW 05:13:28 88° NNE 05:16:44 10° ESE visible
